Wind_Gust
14 10 11 8 7 6 5 6 4 5 4 5 7 7 10 7 8 7 6 6 7 8 9 6 4 3 5 7 10 11 10 8 8 10 11 8 7 7 7 6 5 4
15 11 12 10 9 5 5 4 4 4 4 5 8 10 8 7 6 7 8 8 8 7 5 5 4 4 5 8 7 7 6 6 8 11 9 11 10 8 6 4 4 6
9 9 11 10 12 6 5 4 4 5 4 8 10 9 9 7 8 7 6 7 8 7 6 5 6 6 7 6 7 7 8 9 10 10 11 12 8 8 7 5 7 8
9 7 4 10 10 9 6 5 5 4 6 8 9 9 8 8 8 8 7 8 6 6 5 4 4 4 6 7 6 6 7 7 6 6 7 7 7 7 6 5 10 13
11 9 6 11 10 9 6 6 7 6 6 7 9 8 9 8 7 8 7 7 7 6 5 6 5 5 3 6 7 6 6 6 5 7 8 8 7 7 8 7 8 10
11 7 5 11 10 9 7 7 8 7 8 8 8 8 8 8 7 8 8 7 6 6 6 6 6 4 5 5 4 5 5 7 6 8 11 9 9 9 13 9 9 9
11 9 9 10 9 6 5 6 8 7 7 6 7 6 7 6 7 8 9 7 8 8 8 5 4 4 4 4 4 5 5 6 7 9 11 9 8 9 9 9 11 11
11 9 9 11 10 8 6 7 9 8 8 8 7 7 7 7 9 7 8 8 8 10 7 8 7 6 5 4 6 5 4 4 6 8 10 10 6 9 9 9 6 9
11 9 10 6 9 7 7 10 9 9 9 8 7 8 6 7 7 7 9 9 9 8 9 7 8 7 4 6 6 6 6 4 7 8 6 7 8 8 11 8 8 8
10 10 11 7 7 7 8 9 9 9 9 9 9 7 10 5 8 9 9 7 8 9 9 8 8 6 7 9 11 8 7 7 8 7 6 5 6 8 11 6 7 6
12 11 10 8 7 8 10 9 8 9 9 11 8 8 9 7 8 8 8 10 8 11 11 10 9 9 9 8 7 6 7 6 7 7 5 5 4 8 6 6 7 6
14 15 15 16 14 11 10 9 8 9 9 8 11 11 8 6 9 9 11 11 12 12 12 12 11 9 10 10 11 8 6 6 7 6 5 5 4 5 6 6 5 6
13 12 13 11 11 11 10 8 7 6 9 10 9 10 9 8 8 9 6 9 12 11 13 13 14 13 10 9 10 10 8 8 7 7 5 4 6 6 6 5 4 6
9 10 10 12 10 11 11 10 9 8 8 6 8 9 9 10 10 10 7 10 9 10 11 11 11 13 13 13 12 9 9 8 6 7 8 6 6 6 6 7 4 4
10 7 7 9 9 7 9 7 7 6 5 8 6 8 7 9 9 11 11 12 11 9 10 9 10 11 13 12 11 12 11 10 9 10 8 9 8 8 8 8 8 6
10 8 9 8 9 8 9 11 10 7 8 8 7 5 6 6 7 7 10 10 12 12 8 6 7 8 6 12 6 11 10 12 10 10 11 10 10 9 6 8 8 15
8 8 8 9 10 8 7 7 9 6 4 6 5 10 11 7 7 11 11 9 11 9 6 3 9 18 13 7 6 5 10 8 9 10 9 11 11 9 8 12 14 10
8 8 7 8 7 7 7 7 8 8 7 6 4 7 8 10 6 6 7 8 11 15 17 22 20 22 25 19 8 3 2 6 7 10 9 9 11 12 14 12 11 9
9 7 9 7 7 6 5 6 8 8 8 8 7 9 9 9 6 5 7 7 7 6 7 10 12 7 15 20 16 10 4 3 9 9 10 9 9 11 11 16 8 7
10 9 8 7 8 6 5 7 8 9 8 10 11 11 11 10 9 8 7 6 8 9 6 8 11 13 18 18 15 13 7 3 7 5 8 10 8 10 15 20 15 11
13 11 11 10 6 4 5 7 7 7 8 8 13 13 12 12 11 10 8 9 11 9 8 11 10 10 16 16 16 16 10 3 8 8 5 8 14 20 13 20 18 16
17 13 10 10 9 6 6 6 4 6 8 7 8 9 10 10 8 10 12 14 13 12 12 14 9 11 14 15 15 14 11 10 11 10 7 9 16 14 11 13 15 15
18 18 16 14 11 10 9 7 6 5 5 6 8 9 10 11 13 13 14 14 13 14 16 14 21 23 25 18 16 15 9 12 13 13 7 8 7 10 11 8 11 14
16 17 16 13 13 13 12 11 9 8 9 7 7 9 11 11 12 14 15 16 15 15 15 14 15 20 26 22 19 18 14 16 14 16 9 10 12 8 5 8 7 6
15 15 14 13 13 13 11 12 10 10 10 10 9 10 10 11 13 14 12 13 14 15 11 13 13 12 18 19 21 19 19 15 15 16 11 10 9 10 10 8 6 8
15 14 12 12 13 13 12 12 11 11 11 12 12 15 15 14 13 14 12 12 11 15 18 17 13 11 15 18 18 18 19 20 16 18 12 12 10 13 13 9 10 11
Wind_Speed
8 6 7 5 5 3 2 2 2 2 2 2 4 4 4 2 2 2 2 3 3 5 5 3 2 1 2 5 6 6 4 4 5 4 4 3 3 3 3 3 3 3
9 7 7 6 6 4 2 2 1 1 2 3 5 5 4 2 2 2 3 4 4 3 3 3 1 1 3 4 4 4 3 4 4 3 5 6 5 4 3 2 3 4
6 6 7 6 7 4 4 2 2 2 2 5 5 4 3 3 3 3 3 3 4 4 3 3 3 3 3 3 4 4 5 6 6 5 6 6 4 4 4 4 5 5
5 4 3 7 6 6 4 3 3 2 4 5 5 3 3 2 3 3 3 4 3 3 3 3 2 2 3 4 3 3 4 4 4 4 4 3 3 3 3 3 6 7
6 5 1 6 6 6 4 4 4 3 3 4 5 3 3 3 3 3 3 3 3 3 3 3 3 3 2 4 4 4 4 3 4 4 4 4 3 4 3 4 5 6
3 3 1 6 6 6 5 4 5 3 3 4 4 4 4 4 3 4 3 3 3 3 3 3 3 1 4 3 3 3 3 3 4 5 5 5 5 4 4 5 5 5
4 3 3 3 5 4 4 4 5 3 3 3 3 3 3 3 4 4 4 3 4 3 3 3 3 2 1 2 2 3 4 4 4 4 4 3 5 5 4 5 6 4
4 2 4 5 5 4 3 5 6 4 3 3 3 3 3 3 4 3 4 3 3 4 3 3 3 3 2 1 3 2 1 2 3 4 5 4 3 4 5 4 4 5
4 3 2 2 6 4 4 5 5 4 3 3 3 4 3 3 3 3 3 3 3 4 3 3 3 3 2 3 3 2 1 2 4 4 3 4 5 4 4 4 5 5
4 4 4 1 3 3 3 5 5 4 3 3 3 4 3 2 4 3 3 3 4 4 4 3 4 3 3 3 2 1 1 3 4 4 2 3 4 4 5 4 4 4
6 5 5 3 3 3 3 5 4 4 3 3 2 3 3 2 4 3 3 3 3 4 4 4 4 3 3 3 2 1 1 2 3 2 1 2 2 5 5 4 4 4
6 7 6 5 3 3 2 3 4 4 4 3 3 3 2 2 4 2 3 3 3 3 4 4 4 4 4 4 3 2 2 2 2 2 1 1 2 4 4 4 3 4
6 6 5 6 5 5 3 2 2 3 5 5 4 3 2 1 1 2 1 2 4 3 4 4 4 4 4 3 3 2 3 2 3 2 1 1 2 2 2 3 2 4
5 6 5 6 5 6 6 5 3 2 2 3 4 4 3 3 2 2 1 2 2 2 2 4 3 3 3 4 4 3 3 3 1 3 3 2 3 2 3 3 1 3
6 3 3 2 3 2 3 3 3 2 2 2 2 3 2 3 3 3 2 2 3 1 1 3 3 3 2 3 2 4 3 4 3 3 3 3 3 3 4 4 4 3
5 4 5 4 5 4 4 4 2 2 2 1 2 1 3 3 2 3 3 3 2 2 1 2 2 3 1 7 2 3 4 4 4 4 4 4 4 4 4 4 4 5
2 3 3 4 4 2 2 3 3 2 2 1 2 5 3 3 2 2 2 1 1 1 1 2 6 9 13 4 4 4 5 4 4 4 4 4 5 5 3 7 4 2
3 2 3 3 3 3 4 3 3 3 2 1 1 1 2 1 2 1 4 4 5 6 9 8 3 3 7 11 7 1 1 2 3 3 4 4 4 5 4 6 6 4
2 2 3 2 2 3 0 2 4 2 2 3 2 1 2 2 2 1 4 2 1 1 5 4 2 4 5 6 9 10 3 2 3 4 4 4 4 5 4 7 5 3
4 3 2 3 3 3 2 0 2 3 4 3 1 2 3 2 2 1 1 1 1 1 2 4 3 5 8 11 13 12 7 2 3 3 4 5 5 2 6 5 3 6
7 6 6 5 3 1 2 3 2 2 3 4 7 6 4 4 3 3 4 3 3 3 4 6 6 9 10 12 13 14 10 3 4 3 3 2 6 8 3 7 9 8
10 8 6 6 5 4 3 2 1 3 3 2 3 5 6 5 3 3 4 5 5 5 5 6 5 8 10 12 12 13 10 6 5 5 2 2 4 1 5 7 8 8
10 10 9 8 7 6 5 4 4 2 1 3 3 3 3 5 6 6 6 6 6 6 7 6 7 11 15 14 12 13 8 6 7 6 4 3 4 5 4 2 5 9
10 10 9 8 8 8 7 7 5 5 5 3 2 3 4 4 5 6 6 7 8 8 8 8 9 14 20 18 15 15 12 9 7 6 5 5 4 3 2 3 1 2
8 8 8 7 7 7 6 7 6 5 5 5 5 3 3 3 3 4 5 7 8 8 10 9 6 8 15 16 16 15 12 8 8 7 6 6 6 6 4 3 2 4
7 7 6 5 6 6 6 6 6 6 5 5 6 6 5 4 3 4 5 5 4 9 9 9 7 6 11 15 14 14 15 11 8 8 4 6 6 7 7 5 5 4
Wind_Direction
143 151 145 155 163 158 183 133 126 196 99 108 113 99 88 79 56 115 132 128 113 86 62 67 47 30 74 64 58 68 70 78 86 101 117 119 112 102 101 107 130 146
158 159 151 156 138 152 137 128 154 116 89 92 95 91 107 139 141 86 84 88 87 109 115 109 141 130 78 79 93 99 112 114 111 121 116 105 99 95 90 73 73 68
136 144 156 149 141 145 130 127 103 92 102 96 98 107 117 127 132 136 108 90 86 85 90 71 60 67 92 93 93 91 75 71 67 64 79 88 91 92 96 101 106 106
123 128 141 132 123 126 126 128 120 110 100 108 115 127 132 123 96 94 100 109 113 94 97 139 125 114 96 100 102 95 92 103 121 116 97 87 87 93 73 61 72 69
146 136 129 122 125 131 146 138 134 128 138 120 118 142 141 125 125 120 118 106 116 121 103 85 83 82 110 91 88 94 126 134 125 109 105 102 94 89 92 93 92 91
111 106 135 132 141 137 132 139 129 138 136 125 147 148 139 167 154 135 124 143 120 124 134 126 134 124 91 125 130 151 129 105 118 131 128 133 140 130 113 110 115 118
131 121 128 124 119 125 131 129 129 126 129 138 157 154 156 175 155 151 151 136 137 143 132 126 113 121 138 130 156 102 113 154 165 138 134 118 122 139 134 98 93 97
137 162 156 151 133 147 139 127 126 141 148 159 180 142 182 181 154 163 143 155 153 132 121 134 136 130 164 125 83 97 129 155 134 113 112 139 126 85 84 104 102 81
158 163 136 125 139 158 147 143 134 143 171 163 178 154 195 193 144 150 160 168 146 133 143 143 142 131 94 88 95 145 177 80 77 91 99 95 99 110 101 81 80 78
155 158 136 153 123 143 149 132 136 144 174 175 184 160 189 207 131 164 174 162 150 146 143 146 127 115 106 121 152 145 125 91 83 90 106 101 111 112 101 94 94 88
146 136 141 165 153 143 146 136 146 157 169 183 181 175 177 183 130 196 162 170 154 172 146 156 130 143 137 139 131 114 85 90 122 113 108 128 113 103 116 111 113 110
147 147 162 160 141 124 158 151 154 165 161 190 174 190 188 179 145 211 177 178 172 188 162 148 148 150 150 148 139 173 125 147 141 140 163 98 82 104 115 108 130 120
145 141 160 146 159 135 154 169 190 186 167 197 167 174 173 176 154 215 165 228 177 205 162 160 151 163 150 151 143 164 152 164 127 155 156 107 95 105 114 107 128 121
125 137 163 149 168 158 169 172 180 223 214 208 166 163 167 173 181 245 170 275 222 216 168 154 151 152 161 153 169 159 158 170 154 158 189 165 157 173 136 133 137 107
60 17 52 115 110 155 136 150 169 193 211 235 181 156 143 172 169 199 227 219 272 232 194 133 146 152 178 169 179 177 163 185 183 187 182 181 165 188 164 139 170 101
132 171 170 174 145 153 171 171 177 181 193 343 327 168 153 173 222 200 204 196 246 268 204 120 127 142 167 173 211 189 183 190 196 193 202 182 181 196 180 158 96 108
116 117 120 125 125 153 116 156 147 100 41 18 18 36 9 340 303 258 231 215 226 276 297 60 36 18 9 124 87 283 194 199 192 201 211 205 189 189 181 102 110 97
47 80 107 122 137 154 153 146 145 147 153 175 148 37 339 351 321 23 51 43 46 48 61 61 60 299 32 333 320 238 284 210 199 202 215 222 210 188 186 115 119 113
173 149 101 83 102 88 315 155 150 146 159 155 146 198 207 225 285 50 68 71 84 72 86 96 161 257 267 262 290 294 260 280 232 207 215 221 229 214 136 112 79 55
50 28 95 137 142 147 175 173 210 176 162 147 146 255 220 223 218 177 130 136 181 99 113 148 154 240 223 249 250 255 261 280 261 242 221 219 216 235 90 122 106 230
17 22 8 8 348 115 168 190 192 204 182 174 153 191 222 215 213 208 178 185 192 164 163 156 169 194 224 237 241 235 228 226 256 281 284 307 13 31 41 160 190 213
1 2 5 357 345 349 341 310 192 183 203 190 190 188 189 204 203 192 195 204 197 172 166 159 174 207 224 226 236 248 225 217 231 241 246 67 90 302 241 173 196 195
353 350 354 348 355 337 330 322 325 318 255 171 186 207 217 195 193 202 205 202 198 189 189 177 182 220 237 230 217 228 222 228 229 232 217 170 141 191 260 286 194 183
345 343 340 340 336 331 337 342 336 335 320 317 262 219 217 223 210 201 202 202 197 194 194 199 200 204 217 227 216 210 202 220 221 224 215 138 165 184 186 188 294 93
330 326 319 320 318 320 333 329 329 321 320 317 311 301 272 248 234 237 219 200 193 195 188 192 194 188 198 211 213 203 200 215 218 219 213 171 162 175 176 149 68 12
309 300 306 315 314 315 315 312 316 316 305 314 307 300 292 285 268 246 234 225 189 172 193 197 193 185 187 204 204 198 196 206 211 223 197 160 157 174 165 147 114 93